When you browse on this site, cookies collect data to enhance your experience and personalize the content and advertising you see.
Visit our Privacy Policy to learn more. By continuing to use the site, you agree to this use of cookies and data.
  • în România
  • Lista ţărilor
  • Pe 7 zile
  • Temperatura apei
  • Meteo pe hartă
  • Widget-uri
  • user-avatar
    Intrare

    Meteo pe oră la Napoli

    Astăzi, 20 Februarie, Joi

    Timp Temperatura Precipitaţii Vânt Presiune Umiditate
    00:00 +12°C° 0 mm 2 m/s 761 mmHg 73%
    01:00 +11°C° 0 mm 1 m/s 761 mmHg 74%
    02:00 +11°C° 0 mm 1 m/s 761 mmHg 74%
    03:00 +11°C° 0 mm 1 m/s 761 mmHg 74%
    04:00 +11°C° 0 mm 1 m/s 762 mmHg 75%
    05:00 +9°C° 0 mm 2 m/s 762 mmHg 73%
    06:00 +9°C° 0 mm 3 m/s 762 mmHg 71%
    07:00 +9°C° 0 mm 3 m/s 763 mmHg 69%
    08:00 +10°C° 0 mm 4 m/s 763 mmHg 62%
    09:00 +11°C° 0 mm 4 m/s 763 mmHg 55%
    10:00 +12°C° 0 mm 5 m/s 764 mmHg 48%
    11:00 +13°C° 0 mm 4 m/s 764 mmHg 43%
    12:00 +13°C° 0 mm 4 m/s 764 mmHg 38%
    13:00 +14°C° 0 mm 4 m/s 764 mmHg 33%
    14:00 +14°C° 0 mm 3 m/s 764 mmHg 32%
    15:00 +14°C° 0 mm 3 m/s 764 mmHg 31%
    16:00 +15°C° 0 mm 2 m/s 764 mmHg 30%
    17:00 +14°C° 0 mm 2 m/s 764 mmHg 32%
    18:00 +13°C° 0 mm 2 m/s 765 mmHg 34%
    19:00 +12°C° 0 mm 2 m/s 765 mmHg 36%
    20:00 +10°C° 0 mm 2 m/s 765 mmHg 38%
    21:00 +10°C° 0 mm 3 m/s 765 mmHg 39%
    22:00 +9°C° 0 mm 3 m/s 765 mmHg 41%
    23:00 +9°C° 0 mm 2 m/s 765 mmHg 41%

    Mâine, 21 Februarie, Vineri

    Timp Temperatura Precipitaţii Vânt Presiune Umiditate
    00:00 +8°C° 0 mm 2 m/s 765 mmHg 41%
    01:00 +8°C° 0 mm 2 m/s 765 mmHg 42%
    02:00 +8°C° 0 mm 2 m/s 765 mmHg 41%
    03:00 +8°C° 0 mm 2 m/s 765 mmHg 41%
    04:00 +8°C° 0 mm 1 m/s 764 mmHg 41%
    05:00 +8°C° 0 mm 1 m/s 765 mmHg 40%
    06:00 +8°C° 0 mm 1 m/s 765 mmHg 39%
    07:00 +8°C° 0 mm 1 m/s 765 mmHg 38%
    14:00 +16°C° 0 mm 1 m/s 765 mmHg 39%
    15:00 +16°C° 0 mm 2 m/s 765 mmHg 42%
    16:00 +16°C° 0 mm 2 m/s 765 mmHg 44%
    17:00 +15°C° 0 mm 2 m/s 765 mmHg 50%
    18:00 +14°C° 0 mm 1 m/s 766 mmHg 55%
    19:00 +13°C° 0 mm 1 m/s 766 mmHg 61%
    20:00 +12°C° 0 mm 1 m/s 766 mmHg 61%
    21:00 +12°C° 0 mm 1 m/s 767 mmHg 61%
    22:00 +12°C° 0 mm 1 m/s 767 mmHg 62%
    23:00 +11°C° 0 mm 1 m/s 767 mmHg 59%

    Poimâine, 22 Februarie, Sâmbătă

    Timp Temperatura Precipitaţii Vânt Presiune Umiditate
    00:00 +11°C° 0 mm 1 m/s 767 mmHg 56%
    01:00 +9°C° 0 mm 2 m/s 768 mmHg 54%
    02:00 +9°C° 0 mm 2 m/s 768 mmHg 50%
    03:00 +9°C° 0 mm 2 m/s 768 mmHg 46%
    04:00 +9°C° 0 mm 2 m/s 768 mmHg 42%
    05:00 +8°C° 0 mm 2 m/s 768 mmHg 42%
    06:00 +8°C° 0 mm 2 m/s 768 mmHg 41%
    07:00 +8°C° 0 mm 2 m/s 768 mmHg 40%
    08:00 +10°C° 0 mm 2 m/s 769 mmHg 39%
    09:00 +12°C° 0 mm 2 m/s 769 mmHg 39%
    10:00 +14°C° 0 mm 2 m/s 769 mmHg 38%
    11:00 +15°C° 0 mm 2 m/s 769 mmHg 37%
    12:00 +16°C° 0 mm 2 m/s 769 mmHg 36%
    13:00 +18°C° 0 mm 1 m/s 770 mmHg 35%
    14:00 +17°C° 0 mm 2 m/s 769 mmHg 34%
    15:00 +18°C° 0 mm 2 m/s 769 mmHg 34%
    16:00 +18°C° 0 mm 2 m/s 769 mmHg 34%
    17:00 +17°C° 0 mm 3 m/s 769 mmHg 39%
    18:00 +14°C° 0 mm 3 m/s 770 mmHg 44%
    19:00 +13°C° 0 mm 3 m/s 770 mmHg 49%
    20:00 +13°C° 0 mm 3 m/s 770 mmHg 51%
    21:00 +12°C° 0 mm 3 m/s 770 mmHg 53%
    22:00 +13°C° 0 mm 2 m/s 770 mmHg 55%
    23:00 +12°C° 0 mm 2 m/s 771 mmHg 55%

    23 Februarie, Duminică

    Timp Temperatura Precipitaţii Vânt Presiune Umiditate
    00:00 +12°C° 0 mm 2 m/s 771 mmHg 55%
    01:00 +10°C° 0 mm 2 m/s 771 mmHg 55%
    02:00 +11°C° 0 mm 1 m/s 770 mmHg 54%
    03:00 +11°C° 0 mm 1 m/s 770 mmHg 52%
    04:00 +11°C° 0 mm 1 m/s 770 mmHg 51%
    05:00 +11°C° 0 mm 1 m/s 770 mmHg 51%
    06:00 +10°C° 0 mm 1 m/s 770 mmHg 50%
    07:00 +10°C° 0 mm 1 m/s 770 mmHg 50%
    08:00 +12°C° 0 mm 1 m/s 770 mmHg 48%
    09:00 +13°C° 0 mm 1 m/s 770 mmHg 45%
    10:00 +15°C° 0 mm 1 m/s 770 mmHg 43%
    11:00 +16°C° 0 mm 1 m/s 770 mmHg 42%
    12:00 +17°C° 0 mm 2 m/s 769 mmHg 41%
    13:00 +18°C° 0 mm 2 m/s 769 mmHg 40%
    14:00 +17°C° 0 mm 3 m/s 769 mmHg 42%
    15:00 +17°C° 0 mm 3 m/s 768 mmHg 44%
    16:00 +17°C° 0 mm 3 m/s 768 mmHg 46%
    17:00 +16°C° 0 mm 3 m/s 768 mmHg 53%
    18:00 +14°C° 0 mm 3 m/s 768 mmHg 60%
    19:00 +13°C° 0 mm 3 m/s 768 mmHg 67%
    20:00 +12°C° 0 mm 3 m/s 768 mmHg 70%
    21:00 +12°C° 0 mm 3 m/s 768 mmHg 74%
    22:00 +12°C° 0 mm 3 m/s 768 mmHg 78%
    23:00 +11°C° 0 mm 3 m/s 768 mmHg 80%

    24 Februarie, Luni

    Timp Temperatura Precipitaţii Vânt Presiune Umiditate
    00:00 +11°C° 0 mm 3 m/s 768 mmHg 82%
    01:00 +11°C° 0 mm 3 m/s 767 mmHg 84%
    02:00 +11°C° 0 mm 3 m/s 767 mmHg 85%
    03:00 +10°C° 0 mm 3 m/s 766 mmHg 86%
    04:00 +10°C° 0 mm 3 m/s 766 mmHg 86%
    05:00 +10°C° 0 mm 2 m/s 766 mmHg 86%
    06:00 +10°C° 0 mm 2 m/s 766 mmHg 86%
    07:00 +10°C° 0 mm 2 m/s 766 mmHg 86%
    08:00 +12°C° 0 mm 2 m/s 766 mmHg 80%
    09:00 +13°C° 0 mm 2 m/s 766 mmHg 74%
    10:00 +15°C° 0 mm 1 m/s 766 mmHg 68%
    11:00 +15°C° 0 mm 1 m/s 766 mmHg 64%
    12:00 +16°C° 0 mm 1 m/s 765 mmHg 60%
    13:00 +18°C° 0 mm 1 m/s 765 mmHg 55%
    14:00 +17°C° 0 mm 2 m/s 765 mmHg 55%
    15:00 +17°C° 0 mm 2 m/s 765 mmHg 55%
    16:00 +17°C° 0 mm 2 m/s 765 mmHg 55%
    17:00 +16°C° 0 mm 2 m/s 765 mmHg 60%
    18:00 +15°C° 0 mm 2 m/s 765 mmHg 65%
    19:00 +14°C° 0 mm 1 m/s 765 mmHg 70%
    20:00 +14°C° 0 mm 1 m/s 766 mmHg 72%
    21:00 +13°C° 0 mm 1 m/s 766 mmHg 73%
    22:00 +13°C° 0 mm 1 m/s 766 mmHg 75%
    23:00 +13°C° 0 mm 1 m/s 766 mmHg 75%

    25 Februarie, Marţi

    Timp Temperatura Precipitaţii Vânt Presiune Umiditate
    00:00 +11°C° 0 mm 0 m/s 766 mmHg 76%
    01:00 +11°C° 0 mm 0 m/s 766 mmHg 77%
    02:00 +12°C° 0 mm 1 m/s 765 mmHg 77%
    03:00 +11°C° 0 mm 1 m/s 765 mmHg 77%
    04:00 +11°C° 0 mm 1 m/s 765 mmHg 77%
    05:00 +11°C° 0 mm 1 m/s 764 mmHg 78%
    06:00 +11°C° 0 mm 1 m/s 764 mmHg 79%
    07:00 +11°C° 0 mm 1 m/s 764 mmHg 79%
    08:00 +12°C° 0 mm 1 m/s 764 mmHg 77%
    09:00 +13°C° 0 mm 1 m/s 764 mmHg 75%
    10:00 +14°C° 0 mm 1 m/s 764 mmHg 73%
    11:00 +14°C° 0 mm 2 m/s 763 mmHg 72%
    12:00 +15°C° 0 mm 2 m/s 763 mmHg 71%
    13:00 +15°C° 0 mm 2 m/s 763 mmHg 71%
    14:00 +15°C° 0 mm 2 m/s 762 mmHg 70%
    15:00 +15°C° 0 mm 2 m/s 762 mmHg 70%
    16:00 +15°C° 0 mm 2 m/s 761 mmHg 69%
    17:00 +14°C° 0 mm 2 m/s 761 mmHg 71%
    18:00 +14°C° 0 mm 2 m/s 761 mmHg 74%
    19:00 +13°C° 0 mm 2 m/s 761 mmHg 76%
    20:00 +13°C° 0 mm 2 m/s 761 mmHg 77%
    21:00 +13°C° 0 mm 2 m/s 761 mmHg 78%
    22:00 +12°C° 0 mm 2 m/s 761 mmHg 80%
    23:00 +12°C° 0 mm 2 m/s 761 mmHg 80%
    Arată mai mult